View from above orbital plane
|
View from above satellite
|
Ground track
|
The orbit data is extracted from the following two-line orbital elements,
1 41334U 16010A 21062.16356682 0.00000000 00000-0 00000-0 0 04
2 41334 122.9978 330.3537 0005815 127.7371 232.2629 13.41421525 00
Epoch (UTC): | 03 March 2021 03:55:32 |
Eccentricity: | 0.0005815 |
inclination: | 122.9978° |
perigee height: | 1099 km |
apogee height: | 1108 km |
right ascension of ascending node: | 330.3537° |
argument of perigee: | 127.7371° |
revolutions per day: | 13.41421525 |
mean anomaly at epoch: | 232.2629° |
orbit number at epoch: | 0 |
The dashed part of the orbit path shows where the satellite is in the earth's shadow,
|
|